User: anonymous   Login
Location: Plum
(40.5000°N, 79.7500°W)
Time: 09:31:06
(UTC-04:00)
Language:

Cosmos 1825 - Orbit

View from above orbital plane
View from above orbital plane
View from above satellite
View from above satellite

Ground track
Ground track

The orbit data is extracted from the following two-line orbital elements,

1 17566U 87024A   15186.78534871  .00004358  00000-0  22460-3 0  9997
2 17566 082.5069 275.3018 0004912 152.5599 207.5894 15.16126708545797
Epoch (UTC): 05 July 2015 18:50:54
Eccentricity: 0.0004912
inclination: 82.5069°
perigee height: 514 km
apogee height: 521 km
right ascension of ascending node: 275.3018°
argument of perigee: 152.5599°
revolutions per day: 15.16126708
mean anomaly at epoch: 207.5894°
orbit number at epoch: 54579

The dashed part of the orbit path shows where the satellite is in the earth's shadow,  

DLR